Location: Vernon
(50.2670°N, 119.2670°W)
Time: 09:40:41
(UTC-07:00)

Tianhe-1 - Visible Passes

Search period start: 22 June 2021 00:00
Search period end: 02 July 2021 00:00
Orbit: 374 x 386 km, 41.5° (Epoch: 22 June)

Date Brightness Start Highest point End Pass type
(mag) Time Alt. Az. Time Alt. Az. Time Alt. Az.
23 Jun 3.3 03:39:22 10° SSW 03:40:47 12° SSE 03:42:12 10° SE visible
25 Jun 3.0 03:14:39 14° S 03:15:14 15° S 03:17:06 10° SE visible
26 Jun 2.8 03:48:27 10° SW 03:50:28 17° S 03:52:36 10° SE visible
27 Jun 3.0 02:50:12 16° SSE 02:50:12 16° SSE 02:51:43 10° SE visible
28 Jun 2.8 03:24:14 15° SSW 03:24:53 16° S 03:26:53 10° SSE visible
29 Jun 3.2 03:58:59 10° SW 04:00:03 11° SSW 04:01:05 10° S visible
